SL-8 DEB, 3749

Orbit data source: Space-Track

SL-8 DEB, 3749 is space debris in LEO originally from a launch on Mon, 15 Mar 1965 UTC launched from the Tyuratam Missile And Space Complex (TTMTR). Debris objects in space refer to the collection of defunct objects orbiting the Earth. Examples of debris include non-operational satellites, rocket bodies, and fragments generated from explosions, collisions, or faulty payload assembly.

Loading next visibility...
Identifier
3749, 1965-020EU
Orbit
LEO
Country
Flag of CISCIS
Related business
Manufacturer
Unknown
Mission
Spacecraft
Bus & Motor
Unknown
Mass
Unknown
Launch date (UTC)
1965-03-15 (61 years ago)
Launch vehicle
Unknown
Launch site
Tyuratam Missile And Space Complex (TTMTR)
Object type
Payload
Rocket body
Debris
Shape & HBR
Unknown shape, 0.1 m
Radar Cross Section
Medium (>0.1 m² and <1 m²)

Expand to show TLE details & history
Last TLE update: 1 day ago

TLE from 1 day ago
0 SL-8 DEB
1 03749U 65020EU  26175.15104087  .00002464  00000-0  87105-3 0  9993
2 03749  56.1074 136.0938 0446510  90.6250 274.5892 13.93590616801638
Epoch: 2026-06-24T03:37Z
TLE epoch observation values (Epoch: 2026-06-24T03:37:29.931Z)
Latitude
-0.00001°
Longitude
169.40671°
Altitude
905.664 km
Speed
7.406 km/s
True Right ascension
09h 04m 22s
True Declination
0° 00' 00"
Sunlit
Object was in daylight at epoch
Visualization orbit readout
Latitude
Unknown
Longitude
Unknown
Altitude
Unknown
Speed
Unknown
Apparent Right ascension
Unknown
Apparent Declination
Unknown
Sunlit
N/A
Visualization observer readout
Local Sidereal Time
14:51:13
Azimuth
Unknown
Elevation
Unknown
Doppler factor
Unknown
Orbital elements
Apogee altitude
1,241.561 km
Perigee altitude
590.191 km
Semi-major axis
7,294.013 km
Eccentricity
0.04465
Inclination
56.1074°
RAAN
136.0938°
Arg. of periapsis
90.625°
True anomaly
269.47291°
Mean anomaly
274.5892°
Eccentric anomaly
272.0325°
Mean motion
3.48412 °/min
Orbital period
103.33 mins
BSTAR
0.00087105
Loading maneuver chart data...
Computing Atmospheric mass density...
Loading historical data...
Loading historical data...
Loading historical data...
Loading historical data...
Loading historical data...
Loading historical data...
Loading historical data...

Documentation

Showing up to 5 results
|